Hourly Weather Ruchkovo

Today, 3 August, Tuesday

Time Temperature Precipitation Wind Pressure Humidity
00:00 +17°C° 0 mm 6 mps 737 mmHg 83%
01:00 +17°C° 0 mm 6 mps 738 mmHg 80%
02:00 +17°C° 0 mm 5 mps 738 mmHg 78%
03:00 +18°C° 0 mm 4 mps 739 mmHg 79%
04:00 +17°C° 0 mm 4 mps 739 mmHg 81%
05:00 +17°C° 0 mm 4 mps 739 mmHg 82%
06:00 +18°C° 0 mm 4 mps 740 mmHg 76%
07:00 +19°C° 0 mm 4 mps 740 mmHg 69%
08:00 +20°C° 0 mm 4 mps 741 mmHg 63%
09:00 +21°C° 0 mm 5 mps 741 mmHg 59%
10:00 +21°C° 0 mm 5 mps 741 mmHg 55%
11:00 +22°C° 0 mm 5 mps 741 mmHg 51%
12:00 +23°C° 0 mm 5 mps 742 mmHg 46%
13:00 +25°C° 0 mm 5 mps 742 mmHg 41%
14:00 +26°C° 0 mm 6 mps 742 mmHg 36%
15:00 +25°C° 0 mm 5 mps 742 mmHg 40%
16:00 +23°C° 0 mm 5 mps 742 mmHg 43%
17:00 +22°C° 0 mm 5 mps 742 mmHg 46%
18:00 +20°C° 0 mm 4 mps 742 mmHg 54%
19:00 +19°C° 0 mm 3 mps 743 mmHg 61%
20:00 +17°C° 0 mm 2 mps 743 mmHg 68%
21:00 +16°C° 0 mm 2 mps 743 mmHg 72%
22:00 +16°C° 0 mm 2 mps 744 mmHg 75%
23:00 +15°C° 0 mm 2 mps 744 mmHg 79%

Tomorrow, 4 August, Wednesday

Time Temperature Precipitation Wind Pressure Humidity
00:00 +14°C° 0 mm 2 mps 744 mmHg 82%
01:00 +13°C° 0 mm 2 mps 745 mmHg 85%
02:00 +13°C° 0 mm 2 mps 745 mmHg 89%
03:00 +13°C° 0 mm 2 mps 745 mmHg 88%
04:00 +13°C° 0 mm 1 mps 746 mmHg 87%
05:00 +13°C° 0 mm 1 mps 746 mmHg 86%
06:00 +15°C° 0 mm 1 mps 746 mmHg 76%
07:00 +18°C° 0 mm 1 mps 746 mmHg 66%
08:00 +19°C° 0 mm 2 mps 747 mmHg 56%
09:00 +20°C° 0 mm 2 mps 747 mmHg 54%
10:00 +20°C° 0 mm 2 mps 747 mmHg 52%
11:00 +20°C° 0 mm 3 mps 747 mmHg 50%
12:00 +21°C° 0 mm 2 mps 747 mmHg 48%
13:00 +23°C° 0 mm 2 mps 747 mmHg 45%
14:00 +23°C° 0 mm 2 mps 747 mmHg 43%
15:00 +23°C° 0 mm 2 mps 747 mmHg 43%
16:00 +23°C° 0 mm 2 mps 747 mmHg 43%
17:00 +23°C° 0 mm 2 mps 747 mmHg 44%
18:00 +22°C° 0 mm 1 mps 747 mmHg 48%
19:00 +20°C° 0 mm 1 mps 748 mmHg 53%
20:00 +19°C° 0 mm 1 mps 748 mmHg 57%
21:00 +18°C° 0 mm 1 mps 748 mmHg 58%
22:00 +18°C° 0 mm 1 mps 748 mmHg 59%
23:00 +18°C° 0 mm 1 mps 748 mmHg 60%

Day after tomorrow, 5 August, Thursday

Time Temperature Precipitation Wind Pressure Humidity
00:00 +16°C° 0 mm 1 mps 748 mmHg 62%
01:00 +16°C° 0 mm 1 mps 748 mmHg 64%
02:00 +16°C° 0 mm 1 mps 748 mmHg 66%
03:00 +16°C° 0 mm 1 mps 748 mmHg 68%
04:00 +15°C° 0 mm 1 mps 748 mmHg 70%
05:00 +15°C° 0 mm 1 mps 748 mmHg 72%
06:00 +16°C° 0 mm 1 mps 748 mmHg 70%
07:00 +18°C° 0 mm 2 mps 748 mmHg 67%
08:00 +19°C° 0 mm 2 mps 748 mmHg 65%
09:00 +19°C° 0.3 mm 2 mps 748 mmHg 67%
10:00 +19°C° 0.3 mm 2 mps 748 mmHg 68%
11:00 +19°C° 0.3 mm 2 mps 748 mmHg 70%
12:00 +18°C° 1.2 mm 2 mps 748 mmHg 78%
13:00 +17°C° 1.2 mm 2 mps 748 mmHg 86%
14:00 +16°C° 1.2 mm 2 mps 748 mmHg 94%
15:00 +15°C° 1.1 mm 2 mps 748 mmHg 95%
16:00 +15°C° 1.1 mm 2 mps 747 mmHg 96%
17:00 +14°C° 1.1 mm 3 mps 747 mmHg 97%
18:00 +15°C° 0.4 mm 2 mps 747 mmHg 97%
19:00 +15°C° 0.4 mm 2 mps 747 mmHg 97%
20:00 +15°C° 0.4 mm 2 mps 747 mmHg 97%
21:00 +15°C° 0 mm 2 mps 746 mmHg 98%
22:00 +15°C° 0 mm 2 mps 746 mmHg 98%
23:00 +15°C° 0 mm 1 mps 746 mmHg 98%

6 August, Friday

Time Temperature Precipitation Wind Pressure Humidity
00:00 +15°C° 0.1 mm 1 mps 746 mmHg 98%
01:00 +15°C° 0.1 mm 1 mps 746 mmHg 98%
02:00 +15°C° 0.1 mm 1 mps 746 mmHg 98%
03:00 +15°C° 0.3 mm 1 mps 746 mmHg 98%
04:00 +15°C° 0.3 mm 1 mps 745 mmHg 98%
05:00 +15°C° 0.3 mm 1 mps 745 mmHg 98%
06:00 +16°C° 0 mm 1 mps 745 mmHg 97%
07:00 +16°C° 0 mm 2 mps 745 mmHg 96%
08:00 +16°C° 0 mm 2 mps 745 mmHg 95%
09:00 +17°C° 1 mm 2 mps 745 mmHg 95%
10:00 +17°C° 1 mm 2 mps 745 mmHg 96%
11:00 +17°C° 1 mm 2 mps 745 mmHg 96%
12:00 +17°C° 1.2 mm 2 mps 745 mmHg 96%
13:00 +17°C° 1.2 mm 3 mps 745 mmHg 95%
14:00 +17°C° 1.2 mm 3 mps 745 mmHg 95%
15:00 +17°C° 2.6 mm 3 mps 745 mmHg 96%
16:00 +16°C° 2.6 mm 3 mps 745 mmHg 97%
17:00 +16°C° 2.6 mm 3 mps 745 mmHg 98%
18:00 +16°C° 1.8 mm 3 mps 745 mmHg 98%
19:00 +16°C° 1.8 mm 3 mps 745 mmHg 98%
20:00 +16°C° 1.8 mm 3 mps 745 mmHg 98%
21:00 +16°C° 3.8 mm 3 mps 745 mmHg 98%
22:00 +15°C° 3.8 mm 4 mps 744 mmHg 98%
23:00 +15°C° 3.8 mm 4 mps 744 mmHg 98%

7 August, Saturday

Time Temperature Precipitation Wind Pressure Humidity
00:00 +15°C° 0.4 mm 4 mps 744 mmHg 98%
01:00 +15°C° 0.4 mm 4 mps 744 mmHg 97%
02:00 +17°C° 0.4 mm 4 mps 743 mmHg 97%
03:00 +17°C° 0.3 mm 3 mps 743 mmHg 97%
04:00 +17°C° 0.3 mm 3 mps 743 mmHg 96%
05:00 +17°C° 0.3 mm 3 mps 744 mmHg 96%
06:00 +17°C° 0 mm 3 mps 744 mmHg 93%
07:00 +18°C° 0 mm 3 mps 744 mmHg 89%
08:00 +19°C° 0 mm 3 mps 744 mmHg 85%
09:00 +21°C° 0 mm 2 mps 744 mmHg 78%
10:00 +24°C° 0 mm 2 mps 744 mmHg 72%
11:00 +25°C° 0 mm 1 mps 744 mmHg 65%
12:00 +26°C° 0 mm 2 mps 744 mmHg 67%
13:00 +26°C° 0 mm 2 mps 744 mmHg 69%
14:00 +26°C° 0 mm 2 mps 743 mmHg 71%
15:00 +25°C° 0.4 mm 2 mps 744 mmHg 73%
16:00 +25°C° 0.4 mm 3 mps 744 mmHg 75%
17:00 +25°C° 0.4 mm 3 mps 744 mmHg 77%
18:00 +22°C° 0.2 mm 3 mps 744 mmHg 82%
19:00 +21°C° 0.2 mm 3 mps 744 mmHg 87%
20:00 +20°C° 0.2 mm 3 mps 744 mmHg 91%
21:00 +20°C° 0 mm 3 mps 744 mmHg 92%
22:00 +19°C° 0 mm 3 mps 744 mmHg 92%
23:00 +19°C° 0 mm 2 mps 744 mmHg 92%

8 August, Sunday

Time Temperature Precipitation Wind Pressure Humidity
00:00 +19°C° 0 mm 2 mps 744 mmHg 90%
01:00 +20°C° 0 mm 1 mps 744 mmHg 88%
02:00 +20°C° 0 mm 1 mps 744 mmHg 87%
03:00 +20°C° 0 mm 1 mps 744 mmHg 87%
04:00 +19°C° 0 mm 2 mps 744 mmHg 87%
05:00 +18°C° 0 mm 2 mps 744 mmHg 87%
06:00 +20°C° 0 mm 2 mps 744 mmHg 80%
07:00 +23°C° 0 mm 2 mps 744 mmHg 74%
08:00 +24°C° 0 mm 2 mps 744 mmHg 68%
09:00 +26°C° 0 mm 2 mps 744 mmHg 63%
10:00 +27°C° 0 mm 2 mps 745 mmHg 58%
11:00 +28°C° 0 mm 2 mps 745 mmHg 52%
12:00 +28°C° 0 mm 2 mps 745 mmHg 57%
13:00 +27°C° 0 mm 2 mps 745 mmHg 62%
14:00 +26°C° 0 mm 2 mps 745 mmHg 67%
15:00 +26°C° 0.1 mm 2 mps 746 mmHg 71%
16:00 +26°C° 0.1 mm 2 mps 746 mmHg 74%
17:00 +25°C° 0.1 mm 2 mps 746 mmHg 77%
18:00 +24°C° 0.5 mm 2 mps 746 mmHg 83%
19:00 +21°C° 0.5 mm 2 mps 747 mmHg 88%
20:00 +20°C° 0.5 mm 2 mps 747 mmHg 93%
21:00 +20°C° 0.7 mm 2 mps 747 mmHg 95%
22:00 +19°C° 0.7 mm 2 mps 747 mmHg 96%
23:00 +19°C° 0.7 mm 2 mps 748 mmHg 97%
Show more

We Need Your Consent

Meteoprog and our Service Providers may store and access personal data such as cookies, device identifiers or other similar technologies on your device and process such data to personalise content and ads, as well as provide social media features and to analyse the traffic.

  • Store and/or access information on your device

    Cookies, device identifiers or other information can be stored or accessed on your device for the purposes indicated above.

  • Personalised ads and content, ad and content measurement, audience insights, and products development

    Ads and content can be personalised based on a profile. More data can be added to better personalise ads and content. Ad and content performance can be measured. Insights about the audience who saw the ads and content can be derived. Such data can be used to develop or improve user’s experience, systems and software.

By clicking ‘I Agree’ you will allow the use of indicated cookies, device identifiers, web beacons or other similar technologies. Your settings can be changed in the browser on your device.

For certain purposes, legitimate interests may be relied on, rather than consent. You can read more about this in our Privacy and Cookie Policy.